Tracking 25405 objects as of 26-Jan-2022
HD Live streaming from Space Station
objects crossing your sky now

INSAT 4A

Track INSAT 4A now!
INSAT 4A is classified as:


NORAD ID: 28911
Int'l Code: 2005-049A
Perigee: 36,091.2 km
Apogee: 36,102.8 km
Inclination: 2.3 °
Period: 1,451.6 minutes
Semi major axis: 42467 km
RCS: 12.5892 m2 (large)
Launch date: December 21, 2005
Source: India (IND)
Launch site: FRENCH GUIANA (FRGUI)
aabbcc
Your satellite tracking list
Your tracking list is empty




NASA's NSSDC Master Catalog

Two Line Element Set (TLE):
1 28911U 05049A   22026.01131777 -.00000247  00000-0  00000+0 0  9991
2 28911   2.3212  90.8556 0001365  41.0766 121.3607  0.99199715 58929
Source of the keplerian elements: AFSPC